Location: Caltech
(34.1382°N, 118.1253°W)
Time: 03:51:06
(UTC-07:00)

CZ-4B DEB - Visible Passes

Search period start: 23 May 2017 00:00
Search period end: 02 June 2017 00:00
Orbit: 840 x 863 km, 99.0° (Epoch: 22 May)

Date Brightness Start Highest point End Pass type
(mag) Time Alt. Az. Time Alt. Az. Time Alt. Az.
23 May 4.2 04:52:11 10° NNE 04:57:40 89° ESE 05:03:08 10° SSW visible
24 May 4.5 04:40:45 10° NNE 04:46:12 70° ESE 04:51:38 10° S visible
25 May 4.9 04:29:22 10° NNE 04:34:43 53° E 04:40:02 10° S visible
26 May 5.3 04:18:05 10° NNE 04:23:13 41° E 04:28:20 10° S visible
27 May 5.8 04:06:51 10° NE 04:11:41 32° E 04:16:30 10° SSE visible
28 May 6.2 03:55:44 10° NE 04:00:09 25° E 04:04:32 10° SSE visible
29 May 6.5 03:44:48 10° NE 03:48:35 19° E 03:52:23 10° SE visible
30 May 6.7 03:34:06 10° ENE 03:37:01 14° E 03:39:54 10° SE visible
31 May 6.9 03:24:16 10° E 03:25:25 11° E 03:26:33 10° ESE visible
31 May 4.2 05:01:07 10° N 05:06:34 77° WNW 05:12:02 10° SSW visible
01 Jun 4.3 04:49:37 10° NNE 04:55:07 84° ESE 05:00:36 10° SSW visible
